Time,TemperatureF,DewpointF,PressureIn,WindDirection,WindDirectionDegrees,WindSpeedMPH,WindSpeedGustMPH,Humidity,HourlyPrecipIn,Conditions,Clouds,dailyrainin,SoftwareType,DateUTC
2013-09-05 00:06:00,85.1,74.0,29.44,North,357,0.0,-999.0,69,-99.99,,,0.01,weatherlink.com 1.10,2013-09-05 07:06:00,
2013-09-05 00:21:00,84.9,72.0,29.43,North,354,0.0,-999.0,65,-99.99,,,0.01,weatherlink.com 1.10,2013-09-05 07:21:00,
2013-09-05 00:36:00,85.3,72.0,29.43,NW,322,0.0,-999.0,65,-99.99,,,0.01,weatherlink.com 1.10,2013-09-05 07:36:00,
2013-09-05 00:51:00,85.1,73.0,29.43,NNW,336,0.0,-999.0,68,-99.99,,,0.01,weatherlink.com 1.10,2013-09-05 07:51:00,
2013-09-05 01:06:00,85.3,73.0,29.43,NNW,332,0.0,-999.0,67,-99.99,,,0.01,weatherlink.com 1.10,2013-09-05 08:06:00,
2013-09-05 01:21:00,84.9,74.0,29.43,NNW,329,0.0,-999.0,69,-99.99,,,0.01,weatherlink.com 1.10,2013-09-05 08:21:00,
2013-09-05 01:36:00,84.5,73.0,29.42,NNW,336,0.0,-999.0,69,-99.99,,,0.01,weatherlink.com 1.10,2013-09-05 08:36:00,
2013-09-05 01:51:00,84.3,74.0,29.42,North,350,0.0,-999.0,71,-99.99,,,0.00,weatherlink.com 1.10,2013-09-05 08:51:00,
2013-09-05 02:06:00,84.0,75.0,29.42,NNW,346,0.0,-999.0,74,-99.99,,,0.00,weatherlink.com 1.10,2013-09-05 09:06:00,
2013-09-05 02:21:00,83.4,74.0,29.42,North,349,0.0,-999.0,73,-99.99,,,0.00,weatherlink.com 1.10,2013-09-05 09:21:00,
2013-09-05 02:36:00,82.8,72.0,29.41,NNW,339,0.0,-999.0,70,-99.99,,,0.00,weatherlink.com 1.10,2013-09-05 09:36:00,
2013-09-05 02:51:00,82.8,72.0,29.41,NNW,336,0.0,-999.0,69,-99.99,,,0.00,weatherlink.com 1.10,2013-09-05 09:51:00,
2013-09-05 03:06:00,82.8,73.0,29.41,NNW,339,0.0,-999.0,72,-99.99,,,0.00,weatherlink.com 1.10,2013-09-05 10:06:00,
2013-09-05 03:21:00,82.8,73.0,29.41,NNW,340,0.0,-999.0,72,-99.99,,,0.00,weatherlink.com 1.10,2013-09-05 10:21:00,
2013-09-05 03:36:00,-999.0,-99.9,29.41,North,-999,-999.0,-999.0,-999,-99.99,,,0.00,weatherlink.com 1.10,2013-09-05 10:36:00,
2013-09-05 03:51:00,-999.0,-99.9,29.41,North,-999,-999.0,-999.0,-999,-99.99,,,0.00,weatherlink.com 1.10,2013-09-05 10:51:00,
2013-09-05 04:06:00,-999.0,-99.9,29.40,North,-999,-999.0,-999.0,-999,-99.99,,,0.00,weatherlink.com 1.10,2013-09-05 11:06:00,
2013-09-05 04:21:00,-999.0,-99.9,29.40,North,-999,-999.0,-999.0,-999,-99.99,,,0.00,weatherlink.com 1.10,2013-09-05 11:21:00,
2013-09-05 04:36:00,-999.0,-99.9,29.40,North,-999,-999.0,-999.0,-999,-99.99,,,0.00,weatherlink.com 1.10,2013-09-05 11:36:00,
2013-09-05 04:51:00,-999.0,-99.9,29.40,North,-999,-999.0,-999.0,-999,-99.99,,,0.00,weatherlink.com 1.10,2013-09-05 11:51:00,
2013-09-05 05:06:00,-999.0,-99.9,29.40,North,-999,-999.0,-999.0,-999,-99.99,,,0.00,weatherlink.com 1.10,2013-09-05 12:06:00,
2013-09-05 05:21:00,-999.0,-99.9,29.41,North,-999,-999.0,-999.0,-999,-99.99,,,0.00,weatherlink.com 1.10,2013-09-05 12:21:00,
2013-09-05 05:36:00,-999.0,-99.9,29.41,North,-999,-999.0,-999.0,-999,-99.99,,,0.00,weatherlink.com 1.10,2013-09-05 12:36:00,
2013-09-05 05:52:00,-999.0,-99.9,29.41,North,-999,-999.0,-999.0,-999,-99.99,,,0.00,weatherlink.com 1.10,2013-09-05 12:52:00,
2013-09-05 06:07:00,-999.0,-99.9,29.42,North,-999,-999.0,-999.0,-999,-99.99,,,0.00,weatherlink.com 1.10,2013-09-05 13:07:00,
2013-09-05 06:22:00,-999.0,-99.9,29.42,North,-999,-999.0,-999.0,-999,-99.99,,,0.00,weatherlink.com 1.10,2013-09-05 13:22:00,
2013-09-05 06:37:00,-999.0,-99.9,29.42,North,-999,-999.0,-999.0,-999,-99.99,,,0.00,weatherlink.com 1.10,2013-09-05 13:37:00,
2013-09-05 06:52:00,-999.0,-99.9,29.43,North,-999,-999.0,-999.0,-999,-99.99,,,0.00,weatherlink.com 1.10,2013-09-05 13:52:00,
2013-09-05 07:07:00,-999.0,-99.9,29.43,North,-999,-999.0,-999.0,-999,-99.99,,,0.00,weatherlink.com 1.10,2013-09-05 14:07:00,
2013-09-05 07:22:00,-999.0,-99.9,29.44,North,-999,-999.0,-999.0,-999,-99.99,,,0.00,weatherlink.com 1.10,2013-09-05 14:22:00,
2013-09-05 07:37:00,-999.0,-99.9,29.44,North,-999,-999.0,-999.0,-999,-99.99,,,0.00,weatherlink.com 1.10,2013-09-05 14:37:00,
2013-09-05 07:52:00,84.0,74.0,29.45,North,356,0.0,-999.0,72,-99.99,,,0.00,weatherlink.com 1.10,2013-09-05 14:52:00,
2013-09-05 08:07:00,86.1,71.0,29.45,North,359,0.0,-999.0,61,-99.99,,,0.00,weatherlink.com 1.10,2013-09-05 15:07:00,
2013-09-05 08:22:00,87.6,71.0,29.45,North,353,0.0,-999.0,59,-99.99,,,0.00,weatherlink.com 1.10,2013-09-05 15:22:00,
2013-09-05 08:37:00,88.8,69.0,29.45,North,357,2.0,-999.0,53,-99.99,,,0.00,weatherlink.com 1.10,2013-09-05 15:37:00,
2013-09-05 08:52:00,89.5,68.0,29.46,North,356,1.0,-999.0,50,-99.99,,,0.00,weatherlink.com 1.10,2013-09-05 15:52:00,
2013-09-05 09:07:00,91.4,67.0,29.46,North,357,2.0,-999.0,45,-99.99,,,0.00,weatherlink.com 1.10,2013-09-05 16:07:00,
2013-09-05 09:22:00,92.7,65.0,29.47,North,357,0.0,-999.0,40,-99.99,,,0.00,weatherlink.com 1.10,2013-09-05 16:22:00,
2013-09-05 09:37:00,93.6,67.0,29.47,North,357,0.0,-999.0,41,-99.99,,,0.00,weatherlink.com 1.10,2013-09-05 16:37:00,
2013-09-05 09:52:00,94.9,67.0,29.47,North,356,4.0,-999.0,40,-99.99,,,0.00,weatherlink.com 1.10,2013-09-05 16:52:00,
2013-09-05 10:07:00,96.6,67.0,29.46,East,85,0.0,-999.0,38,-99.99,,,0.00,weatherlink.com 1.10,2013-09-05 17:07:00,
2013-09-05 10:23:00,98.0,66.0,29.46,West,271,0.0,-999.0,35,-99.99,,,0.00,weatherlink.com 1.10,2013-09-05 17:23:00,
2013-09-05 10:38:00,98.2,66.0,29.46,East,95,0.0,-999.0,35,-99.99,,,0.00,weatherlink.com 1.10,2013-09-05 17:38:00,
2013-09-05 10:53:00,100.2,65.0,29.46,North,349,0.0,-999.0,31,-99.99,,,0.00,weatherlink.com 1.10,2013-09-05 17:53:00,
2013-09-05 11:08:00,99.9,67.0,29.46,North,356,0.0,-999.0,34,-99.99,,,0.00,weatherlink.com 1.10,2013-09-05 18:08:00,
2013-09-05 11:23:00,101.2,65.0,29.45,North,356,0.0,-999.0,30,-99.99,,,0.00,weatherlink.com 1.10,2013-09-05 18:23:00,
2013-09-05 11:38:00,103.1,64.0,29.45,North,357,3.0,-999.0,28,-99.99,,,0.00,weatherlink.com 1.10,2013-09-05 18:38:00,
2013-09-05 11:53:00,103.6,64.0,29.45,North,356,0.0,-999.0,27,-99.99,,,0.00,weatherlink.com 1.10,2013-09-05 18:53:00,
2013-09-05 12:08:00,105.1,64.0,29.44,NNW,339,0.0,-999.0,26,-99.99,,,0.00,weatherlink.com 1.10,2013-09-05 19:08:00,
2013-09-05 12:23:00,106.5,64.0,29.44,North,354,0.0,-999.0,25,-99.99,,,0.00,weatherlink.com 1.10,2013-09-05 19:23:00,
2013-09-05 12:38:00,106.8,62.0,29.44,North,357,2.0,-999.0,23,-99.99,,,0.00,weatherlink.com 1.10,2013-09-05 19:38:00,
2013-09-05 12:53:00,107.7,61.0,29.43,North,356,0.0,-999.0,22,-99.99,,,0.00,weatherlink.com 1.10,2013-09-05 19:53:00,
2013-09-05 13:08:00,107.9,62.0,29.42,North,356,2.0,-999.0,22,-99.99,,,0.00,weatherlink.com 1.10,2013-09-05 20:08:00,
2013-09-05 13:23:00,108.2,62.0,29.42,North,356,3.0,-999.0,22,-99.99,,,0.00,weatherlink.com 1.10,2013-09-05 20:23:00,
2013-09-05 13:38:00,108.5,61.0,29.41,North,356,2.0,-999.0,21,-99.99,,,0.00,weatherlink.com 1.10,2013-09-05 20:38:00,
2013-09-05 13:53:00,109.6,59.0,29.40,North,356,0.0,-999.0,19,-99.99,,,0.00,weatherlink.com 1.10,2013-09-05 20:53:00,
2013-09-05 14:08:00,109.6,60.0,29.39,North,353,2.0,-999.0,20,-99.99,,,0.00,weatherlink.com 1.10,2013-09-05 21:08:00,
2013-09-05 14:23:00,109.6,60.0,29.39,NNW,339,0.0,-999.0,20,-99.99,,,0.00,weatherlink.com 1.10,2013-09-05 21:23:00,
2013-09-05 14:38:00,109.9,61.0,29.38,North,356,0.0,-999.0,20,-99.99,,,0.00,weatherlink.com 1.10,2013-09-05 21:38:00,
2013-09-05 14:53:00,110.5,60.0,29.37,North,356,1.0,-999.0,19,-99.99,,,0.00,weatherlink.com 1.10,2013-09-05 21:53:00,
2013-09-05 15:08:00,110.5,60.0,29.36,North,356,2.0,-999.0,19,-99.99,,,0.00,weatherlink.com 1.10,2013-09-05 22:08:00,
2013-09-05 15:23:00,110.2,59.0,29.35,North,356,5.0,-999.0,19,-99.99,,,0.00,weatherlink.com 1.10,2013-09-05 22:23:00,
2013-09-05 15:38:00,110.2,59.0,29.35,North,356,1.0,-999.0,19,-99.99,,,0.00,weatherlink.com 1.10,2013-09-05 22:38:00,
2013-09-05 15:53:00,111.0,59.0,29.35,North,356,3.0,-999.0,18,-99.99,,,0.00,weatherlink.com 1.10,2013-09-05 22:53:00,
2013-09-05 16:08:00,111.3,57.0,29.34,North,354,0.0,-999.0,17,-99.99,,,0.00,weatherlink.com 1.10,2013-09-05 23:08:00,
2013-09-05 16:23:00,111.3,59.0,29.34,North,354,2.0,-999.0,18,-99.99,,,0.00,weatherlink.com 1.10,2013-09-05 23:23:00,
2013-09-05 16:38:00,111.0,59.0,29.34,North,354,2.0,-999.0,18,-99.99,,,0.00,weatherlink.com 1.10,2013-09-05 23:38:00,
2013-09-05 16:53:00,110.8,60.0,29.34,North,356,0.0,-999.0,19,-99.99,,,0.00,weatherlink.com 1.10,2013-09-05 23:53:00,
2013-09-05 17:08:00,110.2,59.0,29.34,North,356,1.0,-999.0,19,-99.99,,,0.00,weatherlink.com 1.10,2013-09-06 00:08:00,
2013-09-05 17:23:00,109.3,59.0,29.34,NW,311,0.0,-999.0,19,-99.99,,,0.00,weatherlink.com 1.10,2013-09-06 00:23:00,
2013-09-05 17:38:00,109.1,60.0,29.34,North,356,3.0,-999.0,20,-99.99,,,0.00,weatherlink.com 1.10,2013-09-06 00:38:00,
2013-09-05 17:53:00,108.5,58.0,29.34,North,356,3.0,-999.0,19,-99.99,,,0.00,weatherlink.com 1.10,2013-09-06 00:53:00,
2013-09-05 18:08:00,107.7,57.0,29.34,WNW,292,0.0,-999.0,19,-99.99,,,0.00,weatherlink.com 1.10,2013-09-06 01:08:00,
2013-09-05 18:23:00,106.5,59.0,29.34,North,357,3.0,-999.0,21,-99.99,,,0.00,weatherlink.com 1.10,2013-09-06 01:23:00,
2013-09-05 18:38:00,105.1,58.0,29.34,North,357,0.0,-999.0,21,-99.99,,,0.00,weatherlink.com 1.10,2013-09-06 01:38:00,
2013-09-05 18:53:00,104.1,57.0,29.35,North,357,0.0,-999.0,21,-99.99,,,0.00,weatherlink.com 1.10,2013-09-06 01:53:00,
2013-09-05 19:08:00,103.6,59.0,29.36,North,357,0.0,-999.0,23,-99.99,,,0.00,weatherlink.com 1.10,2013-09-06 02:08:00,
2013-09-05 19:23:00,102.8,60.0,29.36,North,357,0.0,-999.0,24,-99.99,,,0.00,weatherlink.com 1.10,2013-09-06 02:23:00,
2013-09-05 19:38:00,101.5,60.0,29.36,North,357,0.0,-999.0,25,-99.99,,,0.00,weatherlink.com 1.10,2013-09-06 02:38:00,
2013-09-05 19:53:00,100.2,61.0,29.37,North,357,0.0,-999.0,27,-99.99,,,0.00,weatherlink.com 1.10,2013-09-06 02:53:00,
2013-09-05 20:08:00,99.7,61.0,29.37,North,357,0.0,-999.0,28,-99.99,,,0.00,weatherlink.com 1.10,2013-09-06 03:08:00,
2013-09-05 20:23:00,99.2,61.0,29.38,North,357,0.0,-999.0,28,-99.99,,,0.00,weatherlink.com 1.10,2013-09-06 03:23:00,
2013-09-05 20:38:00,98.5,62.0,29.38,North,357,0.0,-999.0,30,-99.99,,,0.00,weatherlink.com 1.10,2013-09-06 03:38:00,
2013-09-05 20:53:00,98.0,61.0,29.38,North,356,0.0,-999.0,29,-99.99,,,0.00,weatherlink.com 1.10,2013-09-06 03:53:00,
2013-09-05 21:08:00,97.3,61.0,29.39,North,356,0.0,-999.0,30,-99.99,,,0.00,weatherlink.com 1.10,2013-09-06 04:08:00,
2013-09-05 21:23:00,96.8,62.0,29.39,North,356,0.0,-999.0,31,-99.99,,,0.00,weatherlink.com 1.10,2013-09-06 04:23:00,
2013-09-05 21:38:00,96.3,61.0,29.39,North,356,0.0,-999.0,31,-99.99,,,0.00,weatherlink.com 1.10,2013-09-06 04:38:00,
2013-09-05 21:53:00,95.9,59.0,29.39,North,356,0.0,-999.0,29,-99.99,,,0.00,weatherlink.com 1.10,2013-09-06 04:53:00,
2013-09-05 22:08:00,95.6,59.0,29.40,North,357,0.0,-999.0,29,-99.99,,,0.00,weatherlink.com 1.10,2013-09-06 05:08:00,
2013-09-05 22:23:00,95.4,58.0,29.40,North,357,0.0,-999.0,29,-99.99,,,0.00,weatherlink.com 1.10,2013-09-06 05:23:00,
2013-09-05 22:38:00,94.9,60.0,29.40,North,357,0.0,-999.0,31,-99.99,,,0.00,weatherlink.com 1.10,2013-09-06 05:38:00,
2013-09-05 22:53:00,94.3,62.0,29.40,North,357,0.0,-999.0,34,-99.99,,,0.00,weatherlink.com 1.10,2013-09-06 05:53:00,
2013-09-05 23:08:00,93.8,63.0,29.40,North,357,0.0,-999.0,36,-99.99,,,0.00,weatherlink.com 1.10,2013-09-06 06:08:00,
2013-09-05 23:23:00,93.4,63.0,29.39,North,357,0.0,-999.0,37,-99.99,,,0.00,weatherlink.com 1.10,2013-09-06 06:23:00,
2013-09-05 23:38:00,93.2,64.0,29.39,North,357,0.0,-999.0,38,-99.99,,,0.00,weatherlink.com 1.10,2013-09-06 06:38:00,
2013-09-05 23:53:00,92.5,65.0,29.39,North,357,0.0,-999.0,40,-99.99,,,0.00,weatherlink.com 1.10,2013-09-06 06:53:00,